CW1967 Weather Reports


Display with metric or nautical units.
time (UTC)temp
F
wind
direction
speed
MPH
gust
MPH
rain 1hr
in
rain 24hr
in
rain mn
in
humidity
%
barometer
mb
20260506104704 61 173 1.0 5.0 0.00 0.00 0.00 89 1017.0
20260506104548 0 20 0.0 0.0 0.00 0.00 0.00 1013.0
20260506104513 54 351 9.0 16.0 0.00 0.11 0.05 86 1012.3
20260506104204 61 120 3.0 7.0 0.00 0.00 0.00 89 1017.1
20260506104045 0 95 1.0 1.0 0.00 0.00 0.00 1013.0
20260506103704 61 150 2.0 5.0 0.00 0.00 0.00 90 1017.1
20260506103542 0 290 0.0 0.0 0.00 0.00 0.00 1012.9
20260506103204 61 212 3.0 8.0 0.00 0.00 0.00 90 1017.1
20260506103039 0 1 0.0 0.0 0.00 0.00 0.00 1012.8
20260506103019 54 344 8.0 16.0 0.00 0.11 0.05 86 1012.1
20260506102537 0 355 0.0 0.0 0.00 0.00 0.00 1012.7
20260506102204 61 54 1.0 6.0 0.00 0.00 0.00 90 1017.0
20260506102034 0 238 0.0 1.0 0.00 0.00 0.00 1012.7
20260506101704 61 105 2.0 3.0 0.00 0.00 0.00 90 1016.9
20260506101531 0 8 0.0 0.0 0.00 0.00 0.00 1012.4
20260506101512 54 342 7.0 15.0 0.00 0.11 0.05 86 1012.1
20260506101203 61 188 2.0 7.0 0.00 0.00 0.00 90 1016.9
20260506101028 0 265 1.0 1.0 0.00 0.00 0.00 1012.5
20260506100526 0 112 2.0 3.0 0.00 0.00 0.00 1012.5
20260506100024 0 59 0.0 1.0 0.00 0.00 0.00 1012.4
20260506100010 55 357 9.0 17.0 0.00 0.11 0.05 86 1012.0
20260506095704 60 118 2.0 5.0 0.00 0.00 0.00 89 1016.9
20260506095523 0 86 1.0 2.0 0.00 0.00 0.00 1012.2
20260506095018 0 23 0.0 0.0 0.00 0.00 0.00 1012.3
20260506094704 60 93 2.0 5.0 0.00 0.00 0.00 89 1017.0
20260506094517 0 43 0.0 1.0 0.00 0.00 0.00 1012.4
20260506094510 54 5 6.0 15.0 0.00 0.11 0.05 87 1011.9
20260506094204 60 31 2.0 5.0 0.00 0.00 0.00 89 1017.0
20260506094014 0 185 0.0 0.0 0.00 0.00 0.00 1012.3
20260506093704 61 55 1.0 6.0 0.00 0.00 0.00 89 1017.0
20260506093512 0 274 1.0 2.0 0.00 0.00 0.00 1012.3
20260506093203 61 78 1.0 3.0 0.00 0.00 0.00 88 1017.0
20260506093013 54 334 9.0 16.0 0.00 0.11 0.05 87 1011.7
20260506093009 0 357 0.0 0.0 0.00 0.00 0.00 1012.2
20260506092704 60 62 2.0 3.0 0.00 0.00 0.00 89 1017.0
20260506092507 0 204 1.0 2.0 0.00 0.00 0.00 1012.3
20260506092204 61 102 2.0 5.0 0.00 0.00 0.00 88 1017.3
20260506092003 0 188 0.0 1.0 0.00 0.00 0.00 1012.3
20260506091704 61 61 1.0 3.0 0.00 0.00 0.00 88 1017.4
20260506091508 54 334 9.0 15.0 0.00 0.11 0.05 88 1011.6
20260506091503 0 276 0.0 1.0 0.00 0.00 0.00 1012.5
20260506091203 61 79 2.0 3.0 0.00 0.00 0.00 88 1017.4
20260506090959 0 141 0.0 0.0 0.00 0.00 0.00 1012.6
20260506090704 61 274 2.0 6.0 0.00 0.00 0.00 88 1017.3
20260506090457 0 160 1.0 1.0 0.00 0.00 0.00 1012.4
20260506090203 61 149 3.0 8.0 0.00 0.00 0.00 88 1017.2
20260506090007 53 2 9.0 14.0 0.00 0.11 0.05 90 1011.5
20260506085953 0 24 0.0 0.0 0.00 0.00 0.00 1012.4
20260506085703 61 210 1.0 6.0 0.00 0.00 0.00 88 1017.5
20260506085450 0 21 0.0 0.0 0.00 0.00 0.00 1012.5
20260506085203 61 99 2.0 6.0 0.00 0.00 0.00 88 1017.4
20260506084946 0 27 0.0 0.0 0.00 0.00 0.00 1012.7
20260506084704 61 103 1.0 5.0 0.00 0.00 0.00 88 1017.5
20260506084511 53 334 8.0 15.0 0.00 0.11 0.05 90 1011.4
20260506084443 0 350 0.0 0.0 0.00 0.00 0.00 1012.7
20260506084204 61 229 1.0 3.0 0.00 0.00 0.00 88 1017.3
20260506083939 0 10 0.0 0.0 0.00 0.00 0.00 1012.6
20260506083703 61 141 1.0 3.0 0.00 0.00 0.00 88 1017.4
20260506083436 0 25 0.0 0.0 0.00 0.00 0.00 1012.8
20260506083203 61 140 1.0 5.0 0.00 0.00 0.00 88 1017.3
20260506083006 52 22 10.0 15.0 0.00 0.11 0.05 90 1011.4
20260506082934 0 12 0.0 0.0 0.00 0.00 0.00 1012.7
20260506082703 61 269 1.0 3.0 0.00 0.00 0.00 87 1017.3
20260506082431 0 18 0.0 0.0 0.00 0.00 0.00 1012.9
20260506082204 61 230 2.0 6.0 0.00 0.00 0.00 87 1017.4
20260506081926 0 334 0.0 0.0 0.00 0.00 0.00 1012.8
20260506081704 61 281 3.0 5.0 0.00 0.00 0.00 87 1017.3
20260506081508 52 3 10.0 16.0 0.00 0.11 0.05 91 1011.3
20260506081425 0 27 0.0 0.0 0.00 0.00 0.00 1012.9
20260506081204 61 21 2.0 3.0 0.00 0.00 0.00 87 1017.4
20260506080922 0 28 0.0 0.0 0.00 0.00 0.00 1012.9
20260506080703 61 19 0.0 3.0 0.00 0.00 0.00 87 1017.2
20260506080418 0 39 0.0 0.0 0.00 0.00 0.00 1012.7
20260506080203 62 272 3.0 6.0 0.00 0.00 0.00 87 1017.2
20260506073403 0 353 0.0 0.0 0.00 0.00 0.00 1013.1
20260506073203 62 26 1.0 3.0 0.00 0.00 0.00 86 1017.2
20260506073007 51 344 7.0 14.0 0.00 0.11 0.05 91 1011.1
20260506072900 0 19 0.0 0.0 0.00 0.00 0.00 1013.2
20260506072703 62 326 2.0 5.0 0.00 0.00 0.00 86 1017.2
20260506072357 0 9 0.0 0.0 0.00 0.00 0.00 1013.1
20260506072204 62 177 1.0 6.0 0.00 0.00 0.00 86 1017.2
20260506071854 0 35 0.0 0.0 0.00 0.00 0.00 1013.0
20260506071704 62 13 1.0 5.0 0.00 0.00 0.00 86 1017.0
20260506071600 51 334 9.0 13.0 0.00 0.11 0.05 91 1010.9
20260506071352 0 40 0.0 0.0 0.00 0.00 0.00 1013.2
20260506070849 0 293 0.0 0.0 0.00 0.00 0.00 1013.2
20260506070346 0 113 1.0 1.0 0.00 0.00 0.00 1013.1
20260506062323 0 335 0.0 1.0 0.00 0.00 0.00 1013.5
20260506062203 63 283 2.0 6.0 0.00 0.00 0.00 84 1017.5
20260506061819 0 36 1.0 1.0 0.00 0.00 0.00 1013.6
20260506061704 63 238 3.0 7.0 0.00 0.00 0.00 83 1017.5
20260506061603 50 358 10.0 15.0 0.00 0.11 0.05 91 1010.4
20260506061316 0 54 1.0 1.0 0.00 0.00 0.00 1013.5
20260506061203 63 336 3.0 5.0 0.00 0.00 0.00 83 1017.7
20260506060814 0 159 0.0 0.0 0.00 0.00 0.00 1013.6
20260506060704 63 285 3.0 6.0 0.00 0.00 0.00 83 1017.7
20260506060312 0 255 1.0 1.0 0.00 0.00 0.00 1013.7
20260506051244 0 30 0.0 0.0 0.00 0.00 0.00 1014.3
20260506051204 64 341 3.0 9.0 0.00 0.00 0.00 81 1018.4
20260506050742 0 14 0.0 0.0 0.00 0.00 0.00 1014.3
20260506050703 64 293 3.0 6.0 0.00 0.00 0.00 81 1018.3
20260506050239 0 19 0.0 0.0 0.00 0.00 0.00 1014.1
20260506050203 64 140 3.0 12.0 0.00 0.00 0.00 81 1018.4
20260506044730 0 44 0.0 0.0 0.00 0.00 0.00 1014.4
20260506044703 64 110 1.0 7.0 0.00 0.00 0.00 80 1018.4
20260506044542 51 338 7.0 12.0 0.00 0.11 0.05 90 1009.5
20260506044227 0 33 0.0 0.0 0.00 0.00 0.00 1014.3
20260506044203 64 261 3.0 6.0 0.00 0.00 0.00 80 1018.4
20260506043724 0 43 0.0 0.0 0.00 0.00 0.00 1014.3
20260506043221 0 1 0.0 0.0 0.00 0.00 0.00 1014.4
20260506043204 64 81 1.0 5.0 0.00 0.00 0.00 80 1018.4
20260506043040 52 359 5.0 12.0 0.00 0.11 0.05 90 1009.5
20260506042720 0 25 0.0 0.0 0.00 0.00 0.00 1014.3
20260506042704 64 282 3.0 8.0 0.00 0.00 0.00 79 1018.6
20260506042218 0 23 0.0 0.0 0.00 0.00 0.00 1014.3
20260506042204 65 335 3.0 5.0 0.00 0.00 0.00 79 1018.6
20260506041716 0 28 0.0 0.0 0.00 0.00 0.00 1014.6
20260506041704 65 172 2.0 5.0 0.00 0.00 0.00 79 1018.6
20260506041544 51 13 5.0 15.0 0.00 0.11 0.05 90 1009.4
20260506041213 0 27 0.0 0.0 0.00 0.00 0.00 1014.6
20260506041203 65 285 3.0 5.0 0.00 0.00 0.00 79 1018.6
20260506040710 0 19 0.0 0.0 0.00 0.00 0.00 1014.6
20260506040207 0 26 0.0 0.0 0.00 0.00 0.00 1014.8
20260506040036 51 342 7.0 11.0 0.00 0.11 0.05 91 1009.4
20260506035704 65 305 2.0 7.0 0.00 0.00 0.00 77 1018.5
20260506035204 65 164 2.0 5.0 0.00 0.00 0.00 77 1018.5
20260506035201 0 25 0.0 0.0 0.00 0.00 0.00 1014.8
20260506034703 65 281 2.0 12.0 0.00 0.00 0.00 77 1018.4
20260506034658 0 17 0.0 0.0 0.00 0.00 0.00 1014.9
20260506034535 52 350 5.0 11.0 0.01 0.11 0.05 90 1009.3
20260506034155 0 15 0.0 0.0 0.00 0.00 0.00 1014.8
20260506033704 66 282 5.0 9.0 0.00 0.00 0.00 76 1018.2
20260506033652 0 23 0.0 0.0 0.00 0.00 0.00 1014.8
20260506033204 66 292 3.0 8.0 0.00 0.00 0.00 76 1018.3
20260506033149 0 34 0.0 0.0 0.00 0.00 0.00 1014.8
20260506033035 52 4 7.0 14.0 0.05 0.11 0.05 90 1009.4
20260506032646 0 24 0.0 0.0 0.00 0.00 0.00 1014.9
20260506032203 66 150 3.0 9.0 0.00 0.00 0.00 75 1018.3
20260506032143 0 16 0.0 0.0 0.00 0.00 0.00 1014.9
20260506031703 66 171 3.0 9.0 0.00 0.00 0.00 75 1018.4
20260506031640 0 16 0.0 0.0 0.00 0.00 0.00 1014.9
20260506031533 52 7 7.0 14.0 0.05 0.11 0.05 90 1009.3
20260506031204 67 261 3.0 13.0 0.00 0.00 0.00 74 1018.3
20260506031137 0 28 0.0 0.0 0.00 0.00 0.00 1014.7
20260506030636 0 23 0.0 0.0 0.00 0.00 0.00 1014.7
20260506030204 67 129 5.0 12.0 0.00 0.00 0.00 74 1018.3
20260506030132 0 19 0.0 0.0 0.00 0.00 0.00 1014.9
20260506030033 53 344 8.0 16.0 0.05 0.11 0.05 90 1009.3
20260506025703 67 179 3.0 9.0 0.00 0.00 0.00 74 1018.3
20260506025629 0 23 0.0 0.0 0.00 0.00 0.00 1014.8
20260506025204 67 166 5.0 16.0 0.00 0.00 0.00 74 1018.2
20260506025125 0 31 0.0 0.0 0.00 0.00 0.00 1014.7
20260506024704 67 302 3.0 8.0 0.00 0.00 0.00 74 1018.4
20260506024623 0 33 0.0 0.0 0.00 0.00 0.00 1014.8
20260506024528 53 349 7.0 13.0 0.04 0.10 0.04 89 1009.3
20260506024204 67 277 2.0 5.0 0.00 0.00 0.00 74 1018.3
20260506024119 0 33 0.0 0.0 0.00 0.00 0.00 1014.8
20260506023615 0 34 0.0 0.0 0.00 0.00 0.00 1014.8
20260506023204 67 276 4.0 8.0 0.00 0.00 0.00 73 1018.3
20260506023113 0 31 0.0 0.0 0.00 0.00 0.00 1014.7
20260506023026 53 18 5.0 11.0 0.00 0.06 0.00 89 1009.2
20260506022704 67 200 2.0 8.0 0.00 0.00 0.00 73 1018.2
20260506022610 0 25 0.0 0.0 0.00 0.00 0.00 1014.5
20260506022203 67 119 2.0 10.0 0.00 0.00 0.00 72 1018.4
20260506022107 0 32 0.0 0.0 0.00 0.00 0.00 1014.5
20260506021704 67 235 3.0 6.0 0.00 0.00 0.00 72 1018.2
20260506021605 0 32 0.0 0.0 0.00 0.00 0.00 1014.6
20260506021204 67 40 3.0 9.0 0.00 0.00 0.00 72 1018.3
20260506021102 0 34 0.0 0.0 0.00 0.00 0.00 1014.6
20260506020703 68 317 4.0 7.0 0.00 0.00 0.00 71 1018.3
20260506020559 0 6 0.0 0.0 0.00 0.00 0.00 1014.5
20260506020204 68 163 4.0 16.0 0.00 0.00 0.00 71 1018.2
20260506020056 0 26 0.0 0.0 0.00 0.00 0.00 1014.5
20260506020040 53 257 0.0 1.0 0.00 0.06 0.00 88 1009.1
20260506015704 68 145 4.0 9.0 0.00 0.00 0.00 71 1018.3
20260506015554 0 22 0.0 0.0 0.00 0.00 0.00 1014.4
20260506015204 68 163 4.0 14.0 0.00 0.00 0.00 70 1018.2
20260506015050 0 12 0.0 0.0 0.00 0.00 0.00 1014.6
20260506014548 0 334 0.0 0.0 0.00 0.00 0.00 1014.5
20260506014523 53 257 0.0 0.0 0.00 0.06 0.00 87 1009.2
20260506014204 69 251 4.0 15.0 0.00 0.00 0.00 70 1018.2
20260506014043 0 28 0.0 0.0 0.00 0.00 0.00 1014.6
20260506013704 69 240 3.0 9.0 0.00 0.00 0.00 70 1018.1
20260506013542 0 21 0.0 0.0 0.00 0.00 0.00 1014.3
20260506013204 69 182 3.0 7.0 0.00 0.00 0.00 69 1017.9
20260506013038 0 16 0.0 0.0 0.00 0.00 0.00 1014.4
20260506013021 53 257 0.0 2.0 0.00 0.06 0.00 87 1009.3
20260506012534 0 15 0.0 0.0 0.00 0.00 0.00 1014.4
20260506012204 69 161 5.0 13.0 0.00 0.00 0.00 70 1017.9
20260506012031 0 12 0.0 0.0 0.00 0.00 0.00 1014.4
20260506011703 69 305 2.0 6.0 0.00 0.00 0.00 69 1017.9
20260506011529 0 18 0.0 0.0 0.00 0.00 0.00 1014.3
20260506011523 53 257 1.0 3.0 0.00 0.06 0.00 87 1009.5
20260506011204 69 251 3.0 9.0 0.00 0.00 0.00 69 1017.8
20260506011025 0 5 0.0 0.0 0.00 0.00 0.00 1014.4
20260506010703 69 169 4.0 9.0 0.00 0.00 0.00 69 1017.8
20260506010525 0 15 0.0 0.0 0.00 0.00 0.00 1014.2
20260506010204 69 131 3.0 7.0 0.00 0.00 0.00 69 1017.7
20260506010022 53 285 1.0 4.0 0.00 0.06 0.00 87 1009.7
20260506005518 0 347 0.0 1.0 0.00 0.00 0.00 1014.2
20260506005204 70 225 3.0 9.0 0.00 0.00 0.00 68 1017.5
20260506005013 0 33 0.0 0.0 0.00 0.00 0.00 1014.2
20260506004704 70 136 3.0 9.0 0.00 0.00 0.00 68 1017.5
20260506004523 53 283 2.0 6.0 0.00 0.06 0.00 87 1009.9
20260506004511 0 290 1.0 1.0 0.00 0.00 0.00 1014.2
20260506004204 70 97 5.0 10.0 0.00 0.00 0.00 68 1017.4
20260506004008 0 25 0.0 1.0 0.00 0.00 0.00 1014.0
20260506003703 70 108 4.0 8.0 0.00 0.00 0.00 67 1017.4
20260506003504 0 71 0.0 0.0 0.00 0.00 0.00 1014.0
20260506003203 70 320 3.0 10.0 0.00 0.00 0.00 67 1017.2
20260506003018 52 283 2.0 5.0 0.00 0.06 0.00 87 1010.0
20260506003000 0 177 2.0 2.0 0.00 0.00 0.00 1014.1
20260506002704 71 104 4.0 8.0 0.00 0.00 0.00 67 1017.2
20260506002456 0 353 1.0 1.0 0.00 0.00 0.00 1013.8
20260506002203 71 151 4.0 9.0 0.00 0.00 0.00 66 1017.2
20260506001952 0 78 1.0 1.0 0.00 0.00 0.00 1013.8
20260506001703 71 118 5.0 9.0 0.00 0.00 0.00 66 1017.2
20260506001513 53 261 2.0 5.0 0.00 0.06 0.00 86 1010.0
20260506001449 0 226 2.0 2.0 0.00 0.00 0.00 1013.8
20260506001203 71 28 3.0 12.0 0.00 0.00 0.00 66 1017.0
20260506000946 0 32 0.0 1.0 0.00 0.00 0.00 1014.0
20260506000703 71 266 2.0 7.0 0.00 0.00 0.00 66 1017.2
20260506000445 0 186 2.0 2.0 0.00 0.00 0.00 1014.0
20260506000205 72 26 3.0 6.0 0.00 0.00 0.00 65 1017.1
20260506000011 53 279 2.0 5.0 0.00 0.06 0.00 87 1010.1
20260505235940 0 133 3.0 3.0 0.00 0.00 0.00 1014.1
20260505235704 72 279 5.0 9.0 0.00 0.00 0.00 65 1017.0
20260505235439 0 172 1.0 2.0 0.00 0.00 0.00 1013.9
20260505235204 72 158 5.0 12.0 0.00 0.00 0.00 65 1016.9
20260505234935 0 98 1.0 2.0 0.00 0.00 0.00 1013.9
20260505234704 72 351 3.0 8.0 0.00 0.00 0.00 64 1016.9
20260505234512 53 278 3.0 8.0 0.00 0.06 0.00 87 1010.3
20260505234433 0 153 0.0 0.0 0.00 0.00 0.00 1013.9
20260505234204 73 109 3.0 9.0 0.00 0.00 0.00 64 1016.8
20260505233929 0 242 1.0 2.0 0.00 0.00 0.00 1014.2
20260505233427 0 226 1.0 2.0 0.00 0.00 0.00 1014.4
20260505233008 54 267 4.0 9.0 0.00 0.06 0.00 88 1010.2
20260505232924 0 244 1.0 2.0 0.00 0.00 0.00 1014.2
20260505232703 73 213 5.0 13.0 0.00 0.00 0.00 63 1016.6
20260505232422 0 165 2.0 2.0 0.00 0.00 0.00 1014.2
20260505232204 74 145 4.0 13.0 0.00 0.00 0.00 62 1016.9
20260505231919 0 21 1.0 1.0 0.00 0.00 0.00 1014.0
20260505231704 74 293 3.0 15.0 0.00 0.00 0.00 62 1016.8
20260505231510 54 270 4.0 8.0 0.00 0.06 0.00 88 1010.2
20260505231416 0 223 4.0 5.0 0.00 0.00 0.00 1014.0
20260505231203 74 155 3.0 10.0 0.00 0.00 0.00 62 1016.6
20260505230914 0 245 1.0 2.0 0.00 0.00 0.00 1014.0
20260505230704 74 171 3.0 9.0 0.00 0.00 0.00 61 1016.5
20260505230412 0 104 2.0 3.0 0.00 0.00 0.00 1013.9
20260505230204 74 319 5.0 15.0 0.00 0.00 0.00 62 1016.5
20260505230015 54 286 2.0 8.0 0.00 0.06 0.00 87 1010.2
20260505225908 0 218 2.0 2.0 0.00 0.00 0.00 1013.8
20260505225703 75 160 5.0 14.0 0.00 0.00 0.00 61 1016.6
20260505225405 0 221 3.0 5.0 0.00 0.00 0.00 1013.9
20260505225203 75 180 3.0 9.0 0.00 0.00 0.00 60 1016.5
20260505224901 0 201 3.0 5.0 0.00 0.00 0.00 1013.9
20260505224704 75 145 3.0 13.0 0.00 0.00 0.00 61 1016.5
20260505224504 54 301 4.0 9.0 0.00 0.06 0.00 87 1010.3
20260505224358 0 185 4.0 5.0 0.00 0.00 0.00 1014.1
20260505224204 75 267 3.0 12.0 0.00 0.00 0.00 60 1016.4
20260505223855 0 140 1.0 1.0 0.00 0.00 0.00 1014.0
20260505223352 0 265 2.0 2.0 0.00 0.00 0.00 1013.7
20260505223203 76 161 5.0 9.0 0.00 0.00 0.00 59 1016.5
20260505223001 55 260 5.0 10.0 0.00 0.06 0.00 86 1010.5
20260505222848 0 37 0.0 1.0 0.00 0.00 0.00 1013.7
20260505222704 76 137 3.0 6.0 0.00 0.00 0.00 59 1016.4
20260505222344 0 31 1.0 1.0 0.00 0.00 0.00 1013.9
20260505222203 76 155 3.0 8.0 0.00 0.00 0.00 58 1016.4
20260505221841 0 192 3.0 6.0 0.00 0.00 0.00 1013.8
20260505221704 76 195 4.0 15.0 0.00 0.00 0.00 57 1016.5
20260505221601 55 267 3.0 8.0 0.00 0.06 0.00 86 1010.6
20260505221338 0 216 2.0 2.0 0.00 0.00 0.00 1013.8
20260505221204 77 196 4.0 14.0 0.00 0.00 0.00 57 1016.5
20260505220835 0 265 1.0 1.0 0.00 0.00 0.00 1013.6
20260505220704 77 10 4.0 13.0 0.00 0.00 0.00 56 1016.6
20260505220332 0 9 2.0 3.0 0.00 0.00 0.00 1013.6
20260505220205 78 75 3.0 9.0 0.00 0.00 0.00 55 1016.5
20260505220106 56 264 3.0 7.0 0.00 0.06 0.00 86 1010.8
20260505215830 0 265 3.0 3.0 0.00 0.00 0.00 1013.4
20260505215704 78 159 7.0 15.0 0.00 0.00 0.00 54 1016.3
20260505215328 0 279 1.0 2.0 0.00 0.00 0.00 1013.5
20260505214826 0 252 2.0 2.0 0.00 0.00 0.00 1013.6
20260505214704 78 111 5.0 21.0 0.00 0.00 0.00 54 1016.3
20260505214604 55 262 4.0 8.0 0.00 0.06 0.06 86 1010.9
20260505214323 0 230 2.0 2.0 0.00 0.00 0.00 1013.6
20260505214204 78 158 5.0 17.0 0.00 0.00 0.00 53 1016.2
20260505213819 0 154 4.0 7.0 0.00 0.00 0.00 1013.6
20260505213317 0 154 3.0 5.0 0.00 0.00 0.00 1013.8
20260505213203 79 102 6.0 12.0 0.00 0.00 0.00 52 1016.1
20260505213052 55 260 3.0 7.0 0.00 0.06 0.06 85 1011.1
20260505212813 0 261 4.0 6.0 0.00 0.00 0.00 1013.8
20260505212704 79 9 6.0 13.0 0.00 0.00 0.00 51 1016.1
20260505212310 0 346 1.0 2.0 0.00 0.00 0.00 1013.7
20260505212203 80 157 6.0 15.0 0.00 0.00 0.00 50 1016.2
20260505211806 0 167 1.0 1.0 0.00 0.00 0.00 1013.7
20260505211704 80 96 5.0 15.0 0.00 0.00 0.00 49 1016.0
20260505211626 55 300 2.0 10.0 0.00 0.06 0.06 84 1011.3
20260505211304 0 6 2.0 3.0 0.00 0.00 0.00 1013.6
20260505211204 81 2 5.0 12.0 0.00 0.00 0.00 48 1015.9
20260505210800 0 260 4.0 6.0 0.00 0.00 0.00 1013.7
20260505210704 81 128 5.0 13.0 0.00 0.00 0.00 48 1016.0
20260505210258 0 251 3.0 5.0 0.00 0.00 0.00 1013.8
20260505210204 81 351 2.0 10.0 0.00 0.00 0.00 47 1015.9
20260505210051 55 271 3.0 11.0 0.00 0.06 0.06 83 1011.4
20260505205754 0 230 5.0 7.0 0.00 0.00 0.00 1013.8
20260505205704 81 127 2.0 7.0 0.00 0.00 0.00 46 1016.1
20260505205253 0 24 1.0 2.0 0.00 0.00 0.00 1013.8
20260505205203 81 119 4.0 12.0 0.00 0.00 0.00 47 1015.9
20260505204749 0 34 1.0 1.0 0.00 0.00 0.00 1013.8
20260505204703 81 154 3.0 13.0 0.00 0.00 0.00 47 1016.1
20260505204600 56 262 6.0 13.0 0.00 0.06 0.06 82 1011.4
20260505204247 0 176 3.0 5.0 0.00 0.00 0.00 1013.9
20260505203744 0 70 1.0 1.0 0.00 0.00 0.00 1013.9
20260505203704 81 154 7.0 14.0 0.00 0.00 0.00 47 1015.9
20260505203241 0 204 4.0 5.0 0.00 0.00 0.00 1013.8
20260505203204 81 114 5.0 13.0 0.00 0.00 0.00 47 1016.0
20260505203054 57 255 7.0 13.0 0.00 0.06 0.06 81 1011.4
20260505202736 0 192 5.0 6.0 0.00 0.00 0.00 1014.0
20260505202704 82 20 2.0 12.0 0.00 0.00 0.00 47 1016.0
20260505202233 0 23 1.0 2.0 0.00 0.00 0.00 1014.0
20260505202203 82 315 6.0 17.0 0.00 0.00 0.00 45 1016.2
20260505201729 0 293 1.0 2.0 0.00 0.00 0.00 1014.2
20260505201703 82 186 7.0 14.0 0.00 0.00 0.00 45 1016.3
20260505201550 56 254 5.0 13.0 0.00 0.06 0.06 81 1011.3
20260505201227 0 151 2.0 2.0 0.00 0.00 0.00 1014.2
20260505201204 82 189 5.0 13.0 0.00 0.00 0.00 43 1016.4
20260505200726 0 187 5.0 7.0 0.00 0.00 0.00 1014.2
20260505200703 82 141 6.0 14.0 0.00 0.00 0.00 43 1016.5
20260505200222 0 237 3.0 5.0 0.00 0.00 0.00 1014.5
20260505200203 82 313 5.0 12.0 0.00 0.00 0.00 43 1016.6
20260505200050 56 271 8.0 14.0 0.00 0.06 0.06 82 1011.2
20260505195717 0 158 3.0 6.0 0.00 0.00 0.00 1014.4
20260505195704 82 90 6.0 10.0 0.00 0.00 0.00 43 1016.5
20260505195215 0 294 2.0 3.0 0.00 0.00 0.00 1014.5
20260505194713 0 294 3.0 5.0 0.00 0.00 0.00 1014.6
20260505194703 82 150 3.0 9.0 0.00 0.00 0.00 43 1016.9
20260505194549 56 269 6.0 13.0 0.00 0.06 0.06 82 1011.1
20260505194209 0 177 3.0 3.0 0.00 0.00 0.00 1014.5
20260505194204 82 255 7.0 15.0 0.00 0.00 0.00 43 1016.8
20260505193705 0 276 2.0 2.0 0.00 0.00 0.00 1014.6
20260505193703 82 295 5.0 14.0 0.00 0.00 0.00 42 1017.0
20260505193203 81 184 6.0 14.0 0.00 0.00 0.00 43 1017.0
20260505193048 56 257 7.0 14.0 0.00 0.06 0.06 82 1011.1
20260505192704 81 133 3.0 13.0 0.00 0.00 0.00 42 1017.1
20260505192701 0 239 4.0 5.0 0.00 0.00 0.00 1014.6
20260505192203 81 288 6.0 13.0 0.00 0.00 0.00 42 1017.1
20260505192158 0 259 3.0 6.0 0.00 0.00 0.00 1014.6
20260505191704 82 2 6.0 14.0 0.00 0.00 0.00 43 1017.2
20260505191656 0 340 7.0 10.0 0.00 0.00 0.00 1014.6
20260505191549 56 268 6.0 12.0 0.00 0.06 0.06 80 1011.1
20260505191154 0 236 4.0 5.0 0.00 0.00 0.00 1014.5
20260505190650 0 255 3.0 3.0 0.00 0.00 0.00 1014.6
20260505190204 81 168 6.0 13.0 0.00 0.00 0.00 43 1017.3
20260505190150 0 264 3.0 3.0 0.00 0.00 0.00 1014.6
20260505190047 57 259 7.0 14.0 0.00 0.06 0.06 79 1011.0
20260505185704 81 145 6.0 15.0 0.00 0.00 0.00 43 1017.3
20260505185647 0 348 4.0 6.0 0.00 0.00 0.00 1014.9
20260505185204 81 265 6.0 16.0 0.00 0.00 0.00 43 1017.4
20260505185143 0 205 4.0 5.0 0.00 0.00 0.00 1014.9
20260505184703 81 339 5.0 15.0 0.00 0.00 0.00 43 1017.3
20260505184639 0 49 1.0 1.0 0.00 0.00 0.00 1015.1
20260505184547 58 276 9.0 14.0 0.00 0.06 0.06 76 1011.0
20260505184204 82 302 5.0 14.0 0.00 0.00 0.00 44 1017.4
20260505184136 0 194 3.0 3.0 0.00 0.00 0.00 1015.1
20260505183704 81 310 7.0 22.0 0.00 0.00 0.00 43 1017.3
20260505183633 0 174 3.0 5.0 0.00 0.00 0.00 1015.1
20260505183204 82 249 5.0 10.0 0.00 0.00 0.00 42 1017.4
20260505183131 0 172 5.0 6.0 0.00 0.00 0.00 1015.0
20260505183047 59 253 7.0 14.0 0.00 0.06 0.06 76 1011.1
20260505182704 82 246 5.0 13.0 0.00 0.00 0.00 40 1017.4
20260505182627 0 19 1.0 1.0 0.00 0.00 0.00 1015.0
20260505182203 82 221 3.0 8.0 0.00 0.00 0.00 41 1017.4
20260505182124 0 154 1.0 1.0 0.00 0.00 0.00 1015.1
20260505181703 81 228 3.0 13.0 0.00 0.00 0.00 41 1017.6
20260505181620 0 155 2.0 3.0 0.00 0.00 0.00 1015.1
20260505181606 60 300 5.0 15.0 0.00 0.06 0.06 75 1011.2
20260505181204 81 242 6.0 14.0 0.00 0.00 0.00 41 1017.6
20260505181118 0 350 0.0 1.0 0.00 0.00 0.00 1015.1
20260505180703 81 121 6.0 13.0 0.00 0.00 0.00 40 1017.5
20260505180614 0 339 4.0 6.0 0.00 0.00 0.00 1015.3
20260505180204 81 278 5.0 13.0 0.00 0.00 0.00 42 1017.7
20260505180112 0 95 2.0 3.0 0.00 0.00 0.00 1015.3
20260505180100 60 259 8.0 14.0 0.00 0.06 0.06 76 1011.1
20260505175703 81 303 5.0 12.0 0.00 0.00 0.00 43 1017.6
20260505175607 0 249 5.0 6.0 0.00 0.00 0.00 1015.2
20260505175204 81 129 4.0 10.0 0.00 0.00 0.00 43 1017.6
20260505175104 0 106 3.0 5.0 0.00 0.00 0.00 1015.4
20260505174703 81 250 5.0 15.0 0.00 0.00 0.00 40 1017.6
20260505174601 0 243 4.0 5.0 0.00 0.00 0.00 1015.2
20260505174546 60 267 6.0 14.0 0.00 0.06 0.06 75 1011.1
20260505174203 81 227 5.0 12.0 0.00 0.00 0.00 44 1017.7
20260505174056 0 269 3.0 3.0 0.00 0.00 0.00 1015.3
20260505173553 0 288 1.0 1.0 0.00 0.00 0.00 1015.2
20260505173050 0 192 1.0 3.0 0.00 0.00 0.00 1015.4
20260505173044 62 250 11.0 14.0 0.00 0.06 0.06 73 1011.2
20260505172548 0 170 4.0 6.0 0.00 0.00 0.00 1015.4
20260505172204 81 297 5.0 14.0 0.00 0.00 0.00 44 1017.9
20260505172044 0 186 5.0 7.0 0.00 0.00 0.00 1015.5
20260505171703 80 49 6.0 17.0 0.00 0.00 0.00 45 1018.0
20260505171547 62 276 10.0 16.0 0.00 0.06 0.06 73 1011.3
20260505171539 0 224 1.0 1.0 0.00 0.00 0.00 1015.4
20260505171036 0 313 0.0 1.0 0.00 0.00 0.00 1015.3
20260505170704 81 214 3.0 9.0 0.00 0.00 0.00 45 1018.0
20260505170533 0 336 2.0 2.0 0.00 0.00 0.00 1015.3
20260505170203 80 306 5.0 10.0 0.00 0.00 0.00 46 1018.1
20260505170042 62 246 10.0 16.0 0.00 0.06 0.06 75 1011.4
20260505170030 0 65 3.0 6.0 0.00 0.00 0.00 1015.5
20260505165704 80 323 5.0 15.0 0.00 0.00 0.00 46 1018.4
20260505165525 0 174 3.0 3.0 0.00 0.00 0.00 1015.5
20260505165203 79 277 6.0 13.0 0.00 0.00 0.00 47 1018.3
20260505165021 0 263 2.0 3.0 0.00 0.00 0.00 1015.3
20260505164703 79 184 6.0 13.0 0.00 0.00 0.00 48 1018.3
20260505164547 62 250 8.0 15.0 0.00 0.06 0.06 74 1011.3
20260505164517 0 164 3.0 5.0 0.00 0.00 0.00 1015.4
20260505164204 79 313 6.0 13.0 0.00 0.00 0.00 48 1018.3
20260505164015 0 175 5.0 6.0 0.00 0.00 0.00 1015.3
20260505163703 79 281 3.0 10.0 0.00 0.00 0.00 48 1018.3
20260505163514 0 200 3.0 3.0 0.00 0.00 0.00 1015.3
20260505163204 80 283 6.0 10.0 0.00 0.00 0.00 47 1018.4
20260505163046 62 269 12.0 19.0 0.00 0.06 0.06 73 1011.2
20260505163010 0 33 1.0 1.0 0.00 0.00 0.00 1015.4
20260505162703 79 261 5.0 13.0 0.00 0.00 0.00 47 1018.6
20260505162503 0 168 3.0 3.0 0.00 0.00 0.00 1015.6
20260505162203 79 297 3.0 7.0 0.00 0.00 0.00 48 1018.5
20260505162000 0 65 1.0 1.0 0.00 0.00 0.00 1015.2
20260505161703 79 147 3.0 7.0 0.00 0.00 0.00 49 1018.6
20260505161541 63 282 10.0 17.0 0.00 0.06 0.06 72 1011.3
20260505161456 0 109 3.0 3.0 0.00 0.00 0.00 1015.6
20260505161203 78 272 5.0 14.0 0.00 0.00 0.00 50 1018.5
20260505160954 0 307 1.0 1.0 0.00 0.00 0.00 1015.6
20260505160452 0 267 2.0 2.0 0.00 0.00 0.00 1015.5
20260505160204 78 147 7.0 16.0 0.00 0.00 0.00 51 1018.5
20260505153203 77 311 5.0 13.0 0.00 0.00 0.00 52 1018.7
20260505153044 63 263 9.0 19.0 0.00 0.07 0.06 71 1011.3
20260505152928 0 148 5.0 6.0 0.00 0.00 0.00 1015.7
20260505152703 76 257 3.0 10.0 0.00 0.00 0.00 53 1018.6
20260505152425 0 180 2.0 2.0 0.00 0.00 0.00 1015.3
20260505152203 76 190 4.0 13.0 0.00 0.00 0.00 52 1018.9
20260505151920 0 211 1.0 2.0 0.00 0.00 0.00 1015.4
20260505151703 76 259 5.0 13.0 0.00 0.00 0.00 53 1018.8
20260505151539 61 298 10.0 17.0 0.00 0.07 0.06 77 1011.4
20260505151416 0 172 9.0 13.0 0.00 0.00 0.00 1015.4
20260505151204 76 287 5.0 12.0 0.00 0.00 0.00 54 1018.7
20260505150914 0 162 3.0 3.0 0.00 0.00 0.00 1015.2
20260505150410 0 210 4.0 5.0 0.00 0.00 0.00 1015.3
20260505150203 75 282 4.0 12.0 0.00 0.00 0.00 54 1018.9
20260505140334 0 225 2.0 2.0 0.00 0.00 0.00 1015.3
20260505140204 71 291 5.0 12.0 0.00 0.00 0.00 59 1018.9
20260505130258 0 74 1.0 1.0 0.00 0.00 0.00 1015.1
20260505130203 67 289 7.0 21.0 0.00 0.00 0.00 66 1019.2
20260505124748 0 72 0.0 1.0 0.00 0.00 0.00 1015.2
20260505124704 67 291 6.0 12.0 0.00 0.00 0.00 66 1019.1
20260505124534 65 260 13.0 17.0 0.00 0.07 0.06 77 1011.7
20260505124245 0 33 1.0 2.0 0.00 0.00 0.00 1015.2
20260505124203 66 296 4.0 12.0 0.00 0.00 0.00 67 1019.1
20260505123740 0 83 1.0 1.0 0.00 0.00 0.00 1015.2
20260505123704 66 280 6.0 12.0 0.00 0.00 0.00 67 1019.2
20260505123237 0 38 0.0 0.0 0.00 0.00 0.00 1015.1
20260505123046 64 240 11.0 16.0 0.00 0.07 0.06 78 1011.6
20260505122734 0 44 1.0 1.0 0.00 0.00 0.00 1014.9
20260505122703 65 268 4.0 9.0 0.00 0.00 0.00 68 1019.1
20260505122231 0 54 0.0 1.0 0.00 0.00 0.00 1014.9
20260505122204 65 243 3.0 9.0 0.00 0.00 0.00 69 1018.9
20260505121728 0 72 0.0 0.0 0.00 0.00 0.00 1015.1
20260505121535 65 263 10.0 16.0 0.00 0.07 0.06 78 1011.6
20260505121224 0 65 1.0 1.0 0.00 0.00 0.00 1014.9
20260505121204 64 148 3.0 9.0 0.00 0.00 0.00 70 1018.8
20260505120721 0 41 0.0 0.0 0.00 0.00 0.00 1015.0
20260505120704 64 264 3.0 10.0 0.00 0.00 0.00 70 1018.9
20260505120217 0 37 0.0 0.0 0.00 0.00 0.00 1014.9
20260505120039 64 248 8.0 15.0 0.00 0.07 0.06 80 1011.5
20260505115716 0 67 0.0 0.0 0.00 0.00 0.00 1014.9
20260505115214 0 31 0.0 1.0 0.00 0.00 0.00 1015.0
20260505115204 63 314 3.0 9.0 0.00 0.00 0.00 72 1019.0
20260505114711 0 39 0.0 0.0 0.00 0.00 0.00 1014.7
20260505114704 62 292 3.0 7.0 0.00 0.00 0.00 73 1018.8
20260505114532 64 288 8.0 18.0 0.00 0.08 0.06 82 1011.6
20260505114207 0 64 0.0 0.0 0.00 0.00 0.00 1014.6
20260505114203 62 288 3.0 7.0 0.00 0.00 0.00 74 1019.0
20260505113704 61 299 3.0 8.0 0.00 0.00 0.00 74 1018.8
20260505113204 61 287 3.0 8.0 0.00 0.00 0.00 75 1018.8
20260505113200 0 62 0.0 0.0 0.00 0.00 0.00 1014.6
20260505113032 63 261 9.0 16.0 0.06 0.08 0.06 85 1011.8
20260505112656 0 59 0.0 0.0 0.00 0.00 0.00 1014.6
20260505112204 60 311 2.0 7.0 0.00 0.00 0.00 76 1018.8
20260505112154 0 34 0.0 0.0 0.00 0.00 0.00 1014.2
20260505111703 60 298 2.0 7.0 0.00 0.00 0.00 76 1018.7
20260505111653 0 80 0.0 0.0 0.00 0.00 0.00 1014.3
20260505111535 62 257 6.0 12.0 0.06 0.08 0.06 88 1011.8
20260505111204 60 258 4.0 10.0 0.00 0.00 0.00 76 1018.6
20260505111149 0 71 0.0 0.0 0.00 0.00 0.00 1014.4
20260505110703 60 339 3.0 7.0 0.00 0.00 0.00 76 1018.6
20260505110646 0 48 0.0 0.0 0.00 0.00 0.00 1014.5
20260505110203 59 319 4.0 7.0 0.00 0.00 0.00 77 1018.6
20260505110143 0 51 0.0 0.0 0.00 0.00 0.00 1014.1